Probability
13 35 58 61 58 55 52 45 39 32 29 29 29 29 29 32 32 35 29 29 19 23 23 19 23 23 16 19 10 10 6 6 6 6 3 0 3 3 0 3 3 0 0
19 45 58 61 58 52 52 42 42 32 35 32 29 29 29 32 29 29 23 19 16 13 16 19 23 19 13 10 6 6 6 3 3 3 3 3 3 0 0 3 0 0 0
29 48 52 55 55 52 52 48 42 35 35 32 32 29 32 32 26 23 19 16 13 13 19 23 23 16 10 10 6 6 6 3 3 3 3 0 0 0 0 3 0 0 0
29 39 48 48 52 48 42 39 42 39 35 32 32 32 26 29 29 23 16 13 13 19 23 23 19 10 10 6 6 6 6 3 3 3 0 0 0 0 0 0 0 0 0
23 39 45 48 52 45 42 39 39 35 32 29 32 29 26 23 23 23 19 16 13 16 19 16 16 10 6 0 3 3 6 3 3 0 0 0 0 0 0 0 3 3 0
26 32 39 45 45 39 32 32 32 29 29 26 26 23 23 23 26 23 16 16 16 16 13 13 13 10 6 3 3 0 0 3 0 0 0 0 0 0 0 0 3 0 0
23 26 35 39 42 35 32 29 26 23 26 26 29 23 23 23 23 26 19 19 19 13 13 10 6 6 6 0 0 0 0 0 0 0 0 0 0 0 0 0 0 0 0
19 26 35 42 35 29 26 32 23 19 23 23 29 19 19 16 19 16 16 19 16 10 6 6 6 6 3 0 0 0 0 0 0 0 0 0 0 0 3 0 0 0 0
19 19 23 23 23 23 23 26 26 23 23 19 26 23 23 23 16 13 13 13 10 6 6 6 6 6 3 0 0 0 0 0 0 0 0 0 0 0 3 3 0 0 3
10 10 16 16 19 19 16 13 16 16 19 19 19 16 10 13 16 13 10 6 6 3 6 6 6 6 3 3 3 0 0 0 0 0 0 0 0 0 0 3 0 0 0
10 6 16 16 16 16 6 6 10 13 13 10 13 6 6 6 10 6 3 3 3 3 3 3 6 6 6 0 0 0 0 0 0 0 0 0 0 3 3 3 0 0 0
6 6 13 13 10 6 6 6 10 10 6 6 0 3 3 3 3 3 0 3 3 3 3 3 3 3 0 0 0 0 0 0 0 0 0 0 0 3 3 3 0 0 0
3 3 10 6 6 3 3 3 0 3 3 3 0 0 3 3 3 0 0 0 0 0 0 0 0 0 0 0 0 0 0 0 0 0 0 0 0 3 3 3 0 0 0
3 0 6 3 0 0 0 3 3 0 0 3 0 0 0 3 3 3 0 0 0 0 0 0 0 0 0 0 0 0 0 0 0 0 0 0 0 3 3 3 0 0 0
3 0 3 0 0 0 0 0 0 0 0 0 0 0 0 0 3 3 0 0 0 0 0 0 0 0 0 0 0 0 0 0 0 0 0 0 0 0 0 0 0 0 0
3 0 0 0 0 0 0 0 0 0 0 0 0 0 0 0 3 3 0 0 0 0 0 0 0 0 0 0 0 0 0 0 0 0 0 0 0 0 0 0 0 0 0
0 0 3 3 0 0 0 0 0 0 0 0 0 0 0 0 0 3 0 0 0 0 0 0 0 0 0 0 0 0 0 0 0 0 0 0 0 0 0 0 0 0 0
0 3 3 3 0 0 0 0 0 0 0 0 0 0 0 0 0 3 0 0 0 0 0 0 0 0 0 0 0 0 0 0 0 0 0 0 0 0 0 0 0 3 0
0 3 3 3 3 0 0 0 0 0 0 0 0 0 0 0 0 0 0 0 0 0 0 0 0 0 0 0 0 0 0 0 0 0 0 0 0 0 0 0 0 0 0
0 0 0 0 0 0 0 0 0 0 0 0 0 0 0 0 0 0 0 0 0 0 0 0 0 0 0 0 0 0 0 0 0 0 0 0 0 0 0 0 0 0 0
0 0 0 0 0 0 0 0 0 0 0 0 0 0 0 0 0 0 0 0 0 0 0 0 0 0 0 0 0 0 0 0 0 0 0 0 0 0 0 0 0 0 0
0 0 0 0 0 0 0 0 0 0 0 0 0 0 0 0 0 0 0 0 0 0 0 0 0 0 0 0 0 0 0 0 0 0 0 0 0 0 0 0 0 0 0
0 0 0 0 0 0 0 0 0 0 0 0 0 0 0 0 0 0 0 0 0 0 0 0 0 0 0 0 0 0 0 0 0 0 0 0 0 0 0 0 0 0 0
0 0 0 0 0 0 0 0 0 0 0 0 0 0 0 0 0 0 0 0 0 0 0 0 0 0 0 0 0 0 0 0 0 0 0 0 0 0 0 0 0 0 0
0 0 0 0 0 0 0 0 0 0 0 0 0 0 0 0 0 0 0 0 0 0 0 0 0 0 0 0 0 0 0 0 0 0 0 0 0 0 0 0 0 0 0
0 0 0 0 0 0 0 0 0 0 0 0 0 0 0 0 0 0 0 0 0 0 0 0 0 0 0 0 0 0 0 0 0 0 0 0 0 0 0 0 0 0 0
Height
5844 5845 5846 5847 5848 5849 5850 5850 5851 5852 5852 5853 5853 5854 5854 5854 5854 5854 5854 5855 5855 5855 5855 5855 5855 5855 5854 5854 5854 5853 5853 5852 5852 5851 5850 5850 5849 5848 5847 5846 5845 5845 5844
5840 5842 5843 5844 5845 5846 5847 5848 5849 5850 5850 5851 5852 5852 5852 5852 5853 5853 5853 5853 5853 5853 5854 5854 5854 5854 5853 5853 5853 5852 5852 5851 5851 5850 5849 5849 5848 5847 5846 5845 5844 5843 5842
5837 5838 5840 5841 5842 5843 5845 5846 5847 5848 5848 5849 5850 5850 5850 5851 5851 5851 5851 5851 5851 5852 5852 5852 5852 5852 5852 5852 5851 5851 5850 5850 5849 5849 5848 5847 5846 5845 5844 5843 5842 5841 5840
5833 5835 5836 5838 5839 5840 5841 5843 5844 5845 5846 5847 5847 5848 5848 5848 5848 5848 5849 5849 5849 5850 5850 5850 5850 5850 5850 5850 5850 5849 5849 5848 5848 5847 5846 5845 5845 5844 5843 5841 5840 5839 5838
5829 5831 5833 5834 5836 5837 5838 5839 5841 5842 5843 5844 5845 5845 5845 5846 5845 5846 5846 5846 5847 5847 5847 5847 5848 5848 5848 5848 5848 5847 5847 5846 5846 5845 5844 5843 5842 5841 5840 5839 5838 5837 5835
5825 5827 5828 5830 5832 5833 5835 5836 5838 5839 5840 5841 5841 5842 5842 5843 5843 5843 5843 5844 5844 5845 5845 5845 5845 5845 5846 5846 5845 5845 5845 5844 5843 5843 5842 5841 5840 5839 5838 5837 5835 5834 5832
5820 5822 5824 5826 5827 5829 5831 5832 5834 5835 5836 5837 5838 5839 5839 5839 5839 5840 5840 5841 5841 5842 5842 5842 5842 5842 5843 5843 5843 5842 5842 5841 5841 5840 5839 5838 5837 5836 5835 5834 5832 5831 5829
5815 5817 5819 5821 5823 5824 5826 5828 5829 5831 5832 5833 5834 5835 5835 5836 5836 5836 5837 5837 5838 5838 5839 5839 5839 5839 5839 5839 5839 5839 5839 5838 5838 5837 5836 5835 5834 5833 5831 5830 5829 5827 5826
5809 5811 5814 5816 5818 5819 5821 5823 5824 5826 5828 5829 5830 5831 5831 5832 5832 5833 5833 5834 5834 5835 5835 5835 5836 5836 5836 5836 5835 5835 5835 5835 5834 5833 5832 5831 5830 5829 5827 5826 5825 5823 5821
5803 5806 5808 5810 5812 5814 5815 5817 5819 5821 5823 5824 5825 5826 5827 5827 5828 5828 5829 5830 5830 5830 5831 5831 5831 5832 5832 5832 5831 5831 5831 5831 5830 5829 5828 5827 5826 5825 5823 5822 5820 5819 5817
5797 5800 5802 5804 5806 5808 5810 5811 5813 5815 5817 5818 5820 5821 5822 5822 5823 5824 5824 5825 5825 5826 5826 5827 5827 5827 5827 5827 5827 5826 5826 5826 5825 5825 5824 5823 5822 5820 5819 5817 5816 5814 5812
5791 5794 5796 5798 5800 5802 5803 5805 5807 5809 5810 5812 5814 5815 5816 5817 5818 5818 5819 5820 5820 5821 5821 5821 5822 5822 5822 5822 5822 5821 5821 5820 5820 5819 5818 5817 5816 5815 5814 5812 5810 5809 5807
5785 5787 5789 5792 5793 5795 5796 5799 5800 5802 5804 5805 5807 5808 5810 5811 5812 5813 5813 5814 5815 5815 5815 5816 5816 5816 5816 5816 5816 5816 5815 5815 5814 5813 5813 5812 5810 5809 5808 5806 5804 5803 5801
5778 5780 5783 5784 5786 5788 5789 5791 5793 5795 5797 5798 5800 5801 5803 5804 5805 5806 5807 5808 5809 5809 5809 5810 5810 5809 5809 5809 5809 5809 5809 5808 5808 5807 5806 5805 5804 5803 5801 5800 5798 5796 5794
5771 5773 5775 5777 5778 5780 5781 5783 5785 5787 5789 5791 5792 5794 5795 5797 5799 5800 5800 5801 5802 5802 5803 5803 5803 5803 5802 5802 5802 5802 5802 5801 5801 5800 5799 5798 5797 5796 5794 5793 5791 5789 5787
5763 5765 5767 5769 5770 5772 5773 5775 5777 5779 5781 5783 5785 5786 5787 5789 5791 5792 5793 5794 5794 5795 5795 5796 5796 5795 5795 5795 5795 5794 5794 5794 5794 5793 5792 5791 5790 5788 5787 5785 5784 5782 5780
5755 5757 5759 5761 5762 5763 5764 5766 5768 5770 5772 5774 5776 5778 5780 5782 5783 5784 5785 5786 5787 5787 5788 5788 5788 5788 5787 5787 5787 5787 5786 5786 5785 5785 5784 5783 5782 5781 5779 5778 5776 5774 5772
5747 5749 5751 5752 5754 5755 5756 5757 5759 5761 5763 5766 5767 5769 5771 5773 5775 5776 5777 5778 5779 5779 5779 5780 5780 5779 5779 5779 5778 5778 5778 5777 5777 5776 5775 5774 5773 5772 5771 5769 5767 5766 5764
5737 5740 5741 5743 5745 5746 5747 5748 5750 5752 5754 5756 5758 5760 5763 5764 5766 5768 5769 5769 5770 5770 5771 5771 5771 5771 5771 5770 5770 5769 5769 5768 5768 5767 5766 5765 5764 5763 5762 5760 5758 5756 5755
5728 5730 5732 5734 5735 5736 5737 5739 5741 5743 5745 5747 5749 5751 5753 5755 5757 5758 5760 5760 5761 5761 5761 5761 5761 5761 5761 5761 5760 5760 5759 5759 5758 5757 5756 5755 5754 5753 5751 5750 5748 5747 5745
5718 5720 5722 5724 5725 5726 5728 5729 5731 5733 5735 5737 5739 5741 5743 5745 5747 5748 5750 5750 5751 5751 5751 5751 5751 5751 5751 5750 5750 5749 5749 5748 5748 5747 5746 5745 5744 5742 5741 5740 5738 5736 5735
5707 5709 5711 5713 5714 5716 5718 5720 5721 5723 5725 5727 5729 5731 5733 5735 5737 5738 5739 5740 5740 5740 5740 5740 5740 5739 5739 5738 5738 5737 5738 5738 5737 5737 5736 5735 5733 5732 5730 5729 5727 5726 5724
5696 5698 5700 5702 5703 5705 5707 5709 5711 5712 5714 5716 5719 5721 5723 5725 5726 5727 5728 5729 5729 5729 5729 5728 5727 5727 5727 5726 5725 5725 5726 5726 5726 5726 5725 5724 5722 5721 5720 5718 5716 5715 5713
5686 5687 5689 5690 5692 5694 5696 5698 5700 5702 5704 5707 5709 5711 5712 5713 5715 5716 5717 5717 5717 5717 5717 5717 5716 5715 5715 5714 5713 5713 5713 5714 5714 5715 5714 5713 5711 5710 5708 5707 5705 5703 5702
5675 5676 5678 5679 5681 5682 5685 5687 5688 5690 5693 5695 5697 5699 5701 5702 5704 5705 5705 5706 5706 5706 5706 5705 5705 5704 5703 5702 5702 5701 5701 5701 5701 5702 5703 5702 5700 5699 5697 5695 5693 5691 5689
5663 5664 5665 5667 5669 5671 5673 5675 5677 5679 5681 5683 5685 5688 5689 5691 5692 5693 5693 5694 5694 5694 5694 5694 5693 5692 5691 5691 5690 5690 5690 5690 5690 5690 5690 5690 5689 5688 5686 5684 5682 5680 5677
Wind_Speed
16 16 15 15 14 13 12 11 11 10 9 9 9 9 9 8 8 8 8 8 8 7 7 7 7 6 6 6 6 6 6 6 6 6 6 6 7 7 8 8 8 8 9
18 17 17 16 15 14 14 13 12 12 11 11 11 10 10 10 10 10 10 10 9 9 9 8 8 8 8 8 7 7 7 7 7 8 8 8 8 8 9 9 9 10 10
19 18 18 17 17 16 15 15 14 14 13 13 12 12 11 11 11 11 11 11 11 11 11 10 10 10 9 9 9 9 9 9 9 9 9 9 10 10 10 10 10 11 12
21 20 19 19 19 18 17 16 16 15 15 14 14 13 13 13 13 13 13 12 12 12 12 12 12 11 11 11 10 10 10 10 10 11 11 11 11 11 11 11 12 12 13
22 22 21 20 20 20 18 18 17 17 17 16 15 15 15 14 14 14 14 14 14 14 14 13 13 13 12 12 12 12 12 12 12 13 12 12 12 13 13 13 14 14 15
24 23 22 21 21 21 20 19 19 18 18 18 17 16 16 16 15 15 15 15 15 15 15 15 15 15 15 14 14 14 14 14 15 15 14 14 15 15 15 15 16 16 17
26 25 24 23 23 23 22 21 21 21 20 20 19 18 17 17 16 17 17 17 17 17 17 17 16 17 17 17 16 16 16 16 16 16 16 16 17 17 17 18 18 19 19
27 26 25 25 25 25 24 23 22 22 22 22 21 20 19 18 18 18 18 18 18 19 19 19 18 18 18 18 18 18 18 18 18 18 18 18 18 19 20 20 20 20 20
28 28 26 26 27 26 26 25 25 24 24 24 24 23 22 21 21 19 20 20 20 20 20 20 20 19 19 19 19 19 19 20 20 20 20 21 21 21 22 22 22 22 22
28 29 28 28 28 28 27 27 26 26 26 26 26 25 24 23 23 22 21 21 22 22 22 22 22 22 21 21 22 22 22 22 22 22 23 23 23 24 24 24 24 23 23
29 29 29 29 29 29 29 29 28 28 28 28 28 27 27 25 25 24 23 23 23 23 24 24 24 23 23 23 24 24 24 24 24 25 25 25 25 25 26 26 26 26 26
30 29 30 31 31 31 31 30 30 30 30 30 30 29 29 28 27 26 26 25 25 25 26 26 26 26 26 26 26 26 26 26 26 27 27 27 27 28 28 28 28 28 28
30 30 30 30 31 32 32 32 32 32 32 32 32 31 31 30 29 29 28 27 27 27 27 28 28 28 29 29 28 29 29 28 29 29 29 29 29 30 30 30 30 30 30
31 31 32 31 32 32 34 33 33 33 34 33 33 33 33 32 31 30 30 30 29 29 29 29 29 30 30 31 31 31 31 31 30 31 31 31 31 31 31 31 31 31 31
32 32 34 34 33 33 34 35 35 34 35 35 34 34 34 34 33 33 32 32 31 31 31 31 31 32 32 32 32 32 32 32 32 32 32 32 32 32 32 32 32 32 32
33 34 35 35 36 35 35 36 37 37 37 37 36 36 35 35 34 34 33 33 32 32 32 33 33 33 33 33 33 33 33 34 33 33 33 33 33 33 33 34 33 33 34
34 34 35 36 37 37 36 37 37 38 37 37 37 37 37 37 36 35 35 34 34 34 34 34 34 34 34 34 35 35 35 35 35 35 35 35 35 34 34 35 34 34 35
35 35 36 37 38 38 38 38 39 39 39 38 37 38 38 38 37 37 37 36 36 36 36 36 36 36 36 36 36 36 37 37 37 37 36 36 36 36 36 36 37 37 37
36 37 37 37 38 39 38 39 40 40 40 40 39 39 40 40 40 40 39 39 38 38 37 38 38 38 38 38 38 38 38 38 38 38 38 38 38 38 39 39 39 38 38
39 39 40 40 40 40 40 40 41 42 41 40 41 41 41 41 41 41 40 41 41 40 40 39 39 39 40 40 40 40 40 40 40 39 40 40 41 40 40 40 40 40 40
40 40 40 40 41 41 40 41 41 42 43 42 42 42 42 42 42 42 42 42 42 42 42 42 41 42 42 42 42 42 41 42 41 40 40 41 42 42 42 41 41 41 41
41 41 41 40 41 41 41 41 42 42 43 43 43 43 43 43 44 44 44 43 43 43 43 43 43 43 43 43 43 43 43 42 42 41 41 41 41 41 41 42 42 42 42
40 40 41 41 41 41 42 42 43 44 44 45 45 44 43 43 44 46 45 45 44 44 43 43 42 42 43 43 44 45 44 43 42 41 41 42 42 42 42 43 43 44 44
41 41 42 43 43 42 43 43 43 45 45 45 46 45 45 44 43 44 45 45 45 44 44 43 42 43 42 42 43 45 45 45 43 43 43 43 43 43 43 43 44 45 45
42 41 42 43 44 44 44 44 44 45 46 46 46 47 46 45 45 45 45 45 46 45 44 44 44 44 44 43 44 45 44 44 45 45 44 44 44 43 44 44 45 45 45
44 44 44 44 45 46 46 46 45 45 46 47 47 48 48 47 47 47 46 46 46 45 45 45 45 43 43 44 44 44 44 44 45 46 45 45 45 44 44 44 45 45 45
Wind_Direction
238 238 237 233 233 235 239 244 248 248 248 248 250 250 252 254 255 255 254 256 254 254 252 254 257 260 264 267 273 281 285 288 291 295 297 298 301 304 307 308 309 309 310
236 236 237 236 236 237 239 242 244 246 247 249 251 253 256 258 259 258 254 256 255 254 256 259 263 264 268 272 274 279 283 285 290 294 297 297 296 298 301 303 305 307 308
238 236 235 236 236 238 239 240 242 244 245 247 250 254 256 260 260 259 255 254 255 256 257 259 263 265 266 270 273 277 281 284 288 293 295 296 297 297 298 299 302 305 306
237 236 236 237 236 236 237 239 240 242 244 246 249 252 255 258 260 259 255 255 255 256 258 259 260 265 266 267 270 274 279 282 286 290 292 293 295 297 298 298 299 301 303
238 237 237 238 239 238 238 238 239 241 242 244 249 252 255 258 259 257 255 254 255 257 260 260 260 263 266 268 271 273 276 280 284 288 290 291 293 295 296 298 298 297 298
238 238 237 238 238 238 238 239 241 242 243 244 248 251 255 257 257 255 255 255 256 258 259 259 265 265 266 268 272 274 276 278 281 285 287 289 292 292 293 296 297 296 296
237 238 238 238 238 238 239 240 243 244 245 247 249 252 254 256 256 255 255 255 256 258 260 261 265 268 266 268 271 273 276 278 280 282 285 287 289 289 291 293 296 295 295
237 237 237 239 240 240 240 242 244 246 247 248 250 252 254 256 257 257 256 255 256 258 260 262 264 267 267 267 269 272 274 276 278 279 283 285 287 288 289 290 293 293 293
238 239 240 241 241 242 242 243 245 247 248 249 250 252 254 255 256 258 259 257 258 259 261 263 265 267 268 269 270 271 273 274 277 279 282 285 287 288 289 291 292 292 292
238 240 242 241 241 242 243 244 245 247 249 250 251 253 254 255 257 259 261 261 260 261 263 265 266 267 268 270 272 272 273 274 276 278 282 284 286 287 289 290 290 290 291
239 241 241 242 242 242 243 244 246 247 249 250 251 252 254 256 258 260 262 264 264 264 266 266 267 268 268 269 271 271 272 273 275 279 281 283 284 286 287 289 289 289 290
239 242 242 243 244 243 243 245 246 247 249 250 251 253 254 256 258 260 261 264 267 267 267 267 268 269 269 270 272 272 273 274 276 279 281 282 284 285 287 288 288 289 289
240 241 243 244 245 245 245 246 246 248 249 249 251 252 254 256 258 260 262 263 265 266 267 267 268 269 270 271 272 274 274 275 277 278 280 281 282 284 286 288 288 288 289
242 243 245 247 247 248 247 247 248 249 249 249 251 253 254 256 258 260 261 263 265 267 267 268 269 270 270 272 272 273 274 275 276 277 278 280 281 283 285 287 287 287 288
244 245 248 248 249 249 249 248 248 248 249 250 250 252 253 255 257 258 261 261 263 265 267 269 269 270 271 272 273 272 274 275 276 277 278 278 280 282 284 285 286 286 286
246 247 249 250 250 250 250 248 248 247 249 250 252 252 252 254 256 258 260 261 263 266 267 268 270 271 272 272 272 273 274 275 277 277 277 278 279 281 283 285 286 286 286
247 248 250 251 251 252 252 251 249 248 249 251 252 253 254 254 256 258 259 261 264 266 267 268 269 271 271 271 272 272 273 274 276 277 277 278 280 281 283 284 285 285 285
249 249 250 251 251 252 253 253 251 250 250 251 252 253 253 254 255 258 259 261 264 266 266 268 269 270 271 272 273 273 273 274 275 276 276 277 279 281 283 283 284 283 284
249 250 251 250 251 252 253 253 251 250 250 251 252 253 253 254 256 258 260 262 264 265 266 267 269 270 271 272 273 274 274 275 276 276 276 277 279 281 282 282 282 282 283
249 250 251 251 251 252 253 253 252 251 250 250 251 253 253 254 256 258 261 263 264 265 266 267 269 270 271 272 273 273 273 274 275 276 276 277 278 280 281 281 281 281 282
248 250 250 251 251 252 252 252 253 252 251 250 250 252 254 255 258 261 262 263 265 267 267 268 269 270 271 272 272 272 273 274 275 276 277 278 278 279 280 280 280 280 281
249 250 250 251 251 252 253 252 252 253 252 251 250 253 255 257 257 259 261 263 266 268 268 269 270 270 271 272 271 272 272 273 274 276 277 278 278 278 278 278 279 279 279
252 251 251 250 251 252 252 253 252 251 252 252 252 253 255 257 259 259 261 265 266 268 269 271 270 270 270 271 271 271 272 274 275 275 276 277 277 277 278 278 278 279 279
253 253 252 251 251 253 252 253 254 252 252 253 252 253 255 256 258 260 262 264 265 268 269 270 270 270 270 271 272 272 272 273 273 274 275 276 276 277 277 278 279 280 280
253 253 253 253 253 254 254 254 254 253 253 253 253 253 255 256 258 261 262 265 266 267 268 269 270 271 271 273 274 274 273 273 272 273 275 275 276 277 278 279 280 281 280
254 255 254 254 254 254 255 256 255 254 254 254 254 255 255 257 259 262 264 265 265 266 268 269 269 270 272 273 274 274 274 274 274 273 275 276 277 278 279 280 280 281 281